Theta_e
285 286 286 285 286 286 283 283 279 281 282 285 288 291 293 295 296 297 298 301 301 302 302 303 305 307 310 311 313 315 315 316 316 317 317 317 317 317 319 324 325 323 324 324
281 286 286 284 286 286 285 284 282 283 282 291 293 293 293 293 294 295 297 300 300 302 302 303 304 306 307 307 309 313 313 314 316 317 318 319 317 317 317 317 321 323 322 322
276 284 285 279 284 285 285 286 285 283 286 290 290 291 292 293 294 294 297 298 298 299 301 302 303 305 305 306 308 309 311 313 315 316 316 317 319 317 316 316 315 317 321 322
274 280 270 283 291 291 288 290 290 290 290 292 292 293 293 294 293 295 297 297 298 299 300 301 303 304 305 307 307 308 310 311 312 314 314 314 315 314 315 316 315 315 315 319
272 274 281 286 290 289 285 285 291 289 291 291 292 291 290 295 298 297 297 297 298 300 301 300 301 302 302 301 303 304 307 308 310 310 310 311 311 312 314 315 315 314 315 316
279 271 270 283 292 294 290 280 291 291 290 290 290 286 289 294 295 295 296 297 298 299 298 298 298 298 297 297 298 299 302 305 309 310 310 308 308 308 310 311 312 313 313 314
276 273 280 289 294 294 279 279 290 292 291 290 288 291 295 296 296 298 297 297 299 298 297 297 297 296 295 296 296 298 300 302 304 306 307 308 309 307 306 306 306 308 309 310
279 276 276 292 291 284 286 288 291 291 291 291 293 294 295 296 296 297 297 297 298 296 296 296 295 294 294 294 296 297 298 298 299 300 302 304 303 303 304 305 303 303 303 304
280 279 285 290 289 292 291 290 291 291 293 293 292 293 294 294 295 296 297 297 297 295 295 295 294 294 293 294 296 296 296 296 297 298 299 300 300 300 300 300 300 301 301 301
281 282 285 288 291 292 293 292 293 293 293 293 292 293 293 294 295 295 296 296 296 295 294 293 295 296 296 297 298 296 295 295 295 295 296 297 298 298 297 297 297 298 299 299
280 284 288 290 292 293 293 294 293 294 294 293 292 292 292 291 292 293 293 293 293 293 293 294 295 296 296 296 296 295 295 295 295 295 295 295 296 296 296 298 298 298 298 299
280 286 287 288 292 293 293 292 293 291 291 292 292 291 291 290 291 291 292 293 293 292 292 292 293 293 293 294 295 294 293 293 294 295 295 296 296 296 295 295 295 294 295 297
286 289 290 292 293 294 292 291 292 292 292 292 292 292 292 292 293 294 292 292 291 291 291 291 290 291 292 293 293 292 292 292 293 293 294 293 294 294 294 296 294 294 293 293
292 291 290 291 291 292 292 293 294 293 293 293 293 294 293 292 292 292 291 292 292 291 290 290 290 289 291 292 292 291 291 292 291 291 293 293 294 294 294 294 294 295 294 293
292 293 292 293 292 293 293 292 292 291 292 292 293 292 291 290 290 291 293 293 292 291 290 290 290 290 292 292 290 290 289 290 291 291 292 292 293 293 294 294 294 294 296 294
291 292 290 290 292 293 292 291 290 290 291 290 290 289 290 291 291 292 292 292 290 289 290 289 289 290 291 290 289 289 289 289 288 288 289 289 290 290 290 291 292 293 293 294
288 288 290 290 291 292 291 291 291 290 290 289 288 290 289 289 290 290 291 292 291 290 290 289 287 289 289 289 288 287 287 287 286 287 287 288 289 288 289 290 290 292 292 294
293 292 291 291 292 292 292 292 292 291 288 288 289 290 288 287 287 288 290 291 291 289 289 288 289 288 288 287 287 286 286 286 286 286 287 287 288 288 288 289 290 290 291 292
294 293 293 294 294 293 293 292 292 291 290 289 290 289 288 288 288 289 290 289 288 286 287 288 289 288 286 286 287 286 285 285 285 286 287 287 287 288 288 289 289 290 291 292
293 294 294 294 294 294 293 293 292 291 291 290 290 289 287 287 288 288 289 288 288 288 288 288 288 286 285 286 286 286 286 287 287 287 289 289 289 289 290 289 290 290 291 292
294 293 292 293 293 294 292 291 291 291 291 290 288 286 285 287 288 288 287 286 288 289 288 289 287 285 286 286 287 287 288 287 288 289 290 290 292 293 292 292 292 292 292 293
294 292 292 293 293 291 291 291 291 292 291 289 288 287 286 286 287 287 289 287 288 287 288 287 286 285 285 286 287 287 287 287 287 287 288 288 289 290 291 293 294 295 295 295
293 293 293 293 293 292 292 291 290 291 290 288 286 285 285 285 286 285 285 288 288 287 288 287 286 285 285 287 287 286 286 286 286 286 286 287 287 288 289 289 290 292 293 296
294 294 294 293 292 293 291 291 290 290 291 289 287 285 285 286 287 289 290 288 287 286 287 287 286 285 285 286 286 286 286 286 285 286 286 286 286 287 287 288 288 290 291 293
294 294 294 292 291 290 291 290 290 289 289 288 287 287 286 287 288 288 289 288 287 287 288 287 286 286 286 286 286 285 285 285 285 286 286 286 285 285 286 286 287 288 290 292
293 293 293 293 291 290 290 290 289 288 288 288 287 287 287 287 288 289 289 287 288 287 287 287 287 286 286 286 286 286 286 286 286 286 286 287 287 287 287 287 287 287 288 290
292 291 292 293 292 291 290 290 290 289 288 289 287 287 287 286 286 287 287 287 287 287 287 287 287 286 286 286 286 286 286 286 286 286 287 287 287 287 287 287 286 286 287 288
Wind_Speed
4 5 3 4 6 4 7 5 6 4 7 6 5 3 4 5 8 10 12 9 8 9 9 6 6 6 5 5 5 5 6 7 7 5 4 2 5 6 7 9 5 2 6 5
4 7 5 6 9 8 7 4 6 6 8 2 3 3 4 7 7 9 10 6 9 11 10 10 8 7 7 6 6 4 4 4 6 7 7 5 3 3 8 7 9 5 5 5
4 3 3 6 9 8 4 4 5 5 6 2 2 3 4 7 8 10 8 6 9 8 8 8 9 9 9 9 6 6 5 5 5 5 6 6 5 5 6 6 6 8 9 7
3 2 1 4 3 3 4 3 3 3 3 4 5 6 8 10 8 6 6 9 11 10 8 6 6 8 8 9 8 8 7 8 6 6 6 7 5 5 8 7 7 7 9 9
4 3 5 3 0 1 3 5 2 3 3 4 4 6 4 6 7 6 7 8 10 10 10 9 7 6 6 8 9 10 9 9 8 9 7 5 5 7 6 6 8 11 8 15
3 4 5 4 2 3 3 5 2 1 5 6 7 11 10 6 6 9 9 10 11 11 9 7 9 6 7 10 10 11 11 11 10 9 8 8 5 3 2 3 6 6 8 8
2 3 7 4 3 1 4 7 2 3 6 7 7 10 16 12 15 14 12 14 13 12 11 11 7 5 8 11 13 14 12 11 8 6 5 6 5 3 3 3 3 2 2 1
2 1 5 1 3 3 6 3 4 6 7 11 12 14 15 15 15 15 16 14 13 11 11 10 7 6 11 13 13 11 12 13 12 10 7 5 5 4 4 4 4 5 3 4
7 6 5 3 2 5 4 6 7 6 11 11 13 14 15 14 14 14 15 13 9 9 12 12 9 9 14 15 12 12 11 12 10 8 9 7 7 6 5 5 6 6 6 7
2 3 3 6 5 5 5 6 8 9 10 10 12 12 13 13 13 12 12 11 10 12 14 15 12 12 15 16 13 12 13 13 11 11 11 10 8 8 9 9 8 8 9 10
4 7 7 4 5 6 8 7 8 7 6 7 7 10 9 11 12 12 12 12 12 13 15 17 15 16 15 16 14 13 13 13 12 10 11 10 10 10 10 11 11 10 10 10
6 6 3 8 7 5 5 6 6 5 6 5 5 8 10 13 13 13 14 14 13 14 14 15 15 15 15 14 14 14 13 11 9 8 8 9 8 10 18 20 17 19 17 15
4 2 7 11 9 3 4 5 6 6 6 7 8 8 13 13 11 16 13 14 13 14 14 14 15 15 13 13 13 14 13 12 10 11 9 9 10 10 10 10 22 22 19 19
6 4 5 2 4 5 4 5 6 6 6 7 9 11 11 12 13 13 13 13 14 15 15 15 14 14 13 13 13 13 13 20 11 10 9 9 10 10 9 9 10 9 16 18
4 4 6 6 4 1 2 4 6 7 9 10 10 12 11 13 13 13 13 14 14 15 14 14 15 15 13 12 13 13 11 9 10 9 9 11 10 11 10 10 10 9 9 10
8 6 5 3 2 2 3 5 5 7 8 9 11 12 13 12 13 13 13 13 14 13 15 16 15 15 14 14 13 11 11 17 16 10 10 10 10 11 10 11 11 11 10 10
3 4 4 2 3 4 3 3 3 5 6 8 11 13 13 14 13 13 14 14 14 13 14 13 16 14 14 13 12 9 8 9 11 9 10 10 10 11 10 10 11 11 10 10
6 4 5 4 3 4 6 5 5 5 4 7 8 13 15 12 13 14 15 16 14 14 13 15 14 17 14 13 11 9 9 9 8 9 9 9 10 10 10 11 11 12 11 11
1 3 2 2 4 5 5 6 6 5 5 6 8 12 11 11 13 14 14 14 13 15 17 17 23 18 14 15 15 8 8 8 8 8 8 11 10 11 11 11 11 11 10 10
4 4 3 3 5 4 6 5 6 4 3 5 8 11 12 13 13 13 14 13 12 11 18 16 17 15 15 15 18 8 8 8 8 7 7 9 11 11 10 13 12 11 10 10
4 4 5 4 4 6 6 6 6 4 2 5 6 9 10 11 12 13 12 11 15 17 18 17 14 13 12 14 11 9 9 9 9 8 8 8 9 4 8 9 9 10 10 11
3 3 4 4 1 5 6 7 6 3 3 5 7 9 11 12 12 12 11 11 11 19 13 11 12 20 15 16 10 10 10 10 9 8 8 9 8 8 7 6 5 7 10 11
2 1 2 4 3 3 5 7 8 5 5 5 4 8 7 7 8 10 11 16 12 16 11 12 19 22 20 11 11 11 12 12 11 10 9 9 9 8 7 7 7 7 7 6
1 0 1 2 4 2 5 6 6 6 5 4 4 5 5 7 7 6 7 12 16 17 13 14 18 22 18 11 12 12 11 11 11 10 9 11 8 8 8 8 7 7 7 7
1 1 1 1 1 1 2 4 5 5 4 5 5 5 6 6 5 8 8 10 16 15 12 18 21 22 13 13 13 12 12 11 11 10 10 10 9 9 8 8 8 8 8 7
1 1 1 4 2 1 1 2 3 3 3 3 4 5 5 5 7 8 8 10 12 14 11 12 13 14 14 14 14 14 13 13 13 12 12 11 11 10 10 10 9 8 8 8
2 2 1 2 1 1 2 2 3 3 3 3 3 5 5 6 8 8 10 10 10 12 11 11 12 14 14 14 14 14 14 13 17 14 13 13 12 12 11 11 10 9 8 8
Wind_Direction
263 269 292 268 267 224 193 199 191 220 239 245 254 273 305 325 335 328 321 329 335 328 323 320 332 331 330 331 333 337 340 329 317 314 336 9 72 42 351 333 290 270 235 243
287 273 258 263 266 254 234 231 249 256 277 179 68 35 329 310 301 290 293 319 328 325 325 320 320 314 312 315 316 315 317 307 307 309 303 294 317 18 338 327 340 17 273 214
260 350 349 291 237 230 207 197 184 204 231 130 198 291 253 273 273 282 288 309 312 298 299 309 309 306 303 300 298 300 291 279 282 287 295 291 252 243 224 288 308 13 332 273
211 41 231 250 317 208 182 206 209 232 202 227 240 255 254 242 237 256 288 299 304 302 298 288 292 305 308 315 310 297 290 289 288 269 265 279 263 231 235 218 228 244 276 299
140 211 299 282 84 62 81 282 225 249 304 264 239 248 266 235 208 221 244 262 267 275 278 292 294 297 308 317 316 313 299 283 276 283 278 256 258 264 246 218 227 216 211 229
158 143 220 245 167 113 134 293 44 49 324 316 2 314 300 248 250 256 250 261 267 257 253 258 274 288 304 308 302 298 297 292 283 271 255 261 274 286 260 255 233 226 215 205
169 221 283 248 129 113 87 246 291 268 292 286 271 251 287 298 286 279 272 269 267 264 260 257 252 261 275 287 283 285 286 288 289 285 258 239 243 235 245 283 307 306 277 224
105 181 273 99 65 163 220 251 250 275 265 270 268 278 285 288 285 285 284 282 273 265 264 262 256 256 267 269 272 274 277 280 279 270 260 258 236 246 254 230 236 250 250 270
170 218 238 300 231 269 200 229 266 270 284 275 284 285 288 288 289 290 291 288 277 257 269 270 258 247 265 274 272 267 264 270 270 267 266 249 239 230 225 230 235 240 242 250
26 294 254 255 265 236 228 246 273 271 273 282 276 286 293 300 303 304 300 294 293 294 286 282 277 265 275 283 277 265 264 264 262 260 258 251 246 244 244 240 236 229 232 235
267 284 291 307 236 270 293 284 282 287 270 281 304 307 304 306 303 303 303 302 300 294 292 291 295 292 291 290 283 273 269 264 256 245 243 245 238 238 239 241 231 230 233 238
219 232 215 260 271 286 283 300 315 315 311 304 275 301 311 311 312 308 307 309 306 302 298 298 297 294 292 286 276 272 273 269 261 257 252 250 240 240 229 234 220 219 225 235
234 250 223 260 282 313 297 325 329 330 313 300 302 300 316 308 306 308 308 304 305 304 299 297 295 293 292 288 282 277 269 264 260 255 252 251 248 248 251 234 227 231 226 230
247 258 295 237 291 314 353 330 327 305 299 301 297 311 315 311 310 311 310 309 307 305 302 299 295 291 291 292 286 278 274 273 269 268 264 254 248 247 245 243 242 241 226 228
277 240 237 272 282 2 355 357 339 332 327 328 327 324 323 317 317 316 314 313 307 301 299 305 305 303 298 292 285 280 278 274 271 268 262 257 255 252 248 244 243 242 242 225
319 313 302 322 292 310 351 347 349 326 328 329 336 335 327 321 317 316 316 317 321 323 322 313 311 312 305 299 289 281 271 260 253 259 259 257 255 256 257 256 254 247 243 240
271 326 341 340 348 314 295 280 285 308 318 325 329 334 335 333 325 325 324 326 325 324 320 317 312 310 313 306 297 287 279 272 258 251 248 249 247 244 245 245 242 244 240 236
234 263 248 233 290 311 304 288 293 305 308 306 325 345 345 335 325 326 328 325 326 328 333 328 321 326 317 311 303 292 282 275 267 259 255 248 244 241 240 240 239 239 239 237
238 330 313 324 291 290 287 293 278 269 314 334 346 346 338 325 325 323 326 330 336 334 336 330 331 331 325 320 320 306 289 281 271 261 252 251 247 240 238 238 239 239 237 233
16 360 329 340 323 303 311 301 292 272 308 355 348 342 342 333 332 332 332 336 340 333 331 330 336 336 332 327 327 318 311 308 301 291 270 255 248 239 234 232 236 238 236 232
26 8 8 4 332 342 348 334 328 302 357 23 7 349 334 322 332 338 338 342 342 340 333 336 342 341 336 333 334 335 337 337 334 332 332 332 335 304 232 236 237 235 237 237
1 14 5 6 22 350 346 348 351 357 58 27 13 357 353 352 345 345 347 344 336 340 335 344 345 344 339 339 345 346 346 347 344 340 340 342 342 339 339 325 287 255 243 237
307 325 10 12 331 273 357 10 357 13 66 39 12 7 352 333 330 344 348 346 345 341 344 348 345 347 345 351 349 349 350 352 350 346 343 341 337 334 330 326 319 313 307 301
195 304 283 16 7 9 353 350 1 17 73 32 29 3 345 348 346 353 345 335 342 346 348 347 348 350 352 352 352 353 352 351 349 344 342 342 338 335 332 327 322 317 312 311
214 161 121 93 19 345 1 353 23 24 37 22 10 356 348 335 334 336 349 348 346 350 352 352 353 354 355 355 354 355 354 352 349 346 346 346 342 337 333 328 323 321 319 319
168 174 221 221 228 142 151 52 44 6 20 14 1 0 355 339 337 347 354 356 351 352 358 354 354 355 356 356 357 358 359 357 359 356 355 355 351 348 345 342 337 332 326 322
57 64 355 302 247 169 177 137 68 21 30 38 18 3 356 349 350 350 360 3 359 357 0 360 359 358 357 360 1 1 1 3 5 1 3 359 358 354 353 350 345 342 341 340